| time (UTC) | temp C | wind direction | speed KPH | gust KPH | rain 1hr cm | rain 24hr cm | rain mn cm | humidity % | barometer mb |
| 20260506180117 | 17 | 201 | 6.4 | 11.3 | 0.00 | 0.00 | 0.00 | 81 | 1006.2 |
| 20260506175613 | 17 | 150 | 6.4 | 6.4 | 0.00 | 0.00 | 0.00 | 80 | 1006.2 |
| 20260506175109 | 17 | 171 | 8.0 | 11.3 | 0.00 | 0.00 | 0.00 | 80 | 1006.1 |
| 20260506174608 | 17 | 284 | 3.2 | 6.4 | 0.00 | 0.00 | 0.00 | 81 | 1006.3 |
| 20260506174104 | 18 | 151 | 3.2 | 4.8 | 0.00 | 0.00 | 0.00 | 78 | 1006.3 |
| 20260506173602 | 18 | 135 | 6.4 | 20.9 | 0.00 | 0.00 | 0.00 | 79 | 1006.2 |
| 20260506173058 | 18 | 128 | 8.0 | 11.3 | 0.00 | 0.00 | 0.00 | 79 | 1006.3 |
| 20260506172555 | 17 | 179 | 8.0 | 11.3 | 0.00 | 0.00 | 0.00 | 80 | 1006.6 |
| 20260506172046 | 17 | 207 | 1.6 | 3.2 | 0.00 | 0.00 | 0.00 | 81 | 1006.5 |
| 20260506171543 | 17 | 29 | 3.2 | 4.8 | 0.00 | 0.00 | 0.00 | 81 | 1006.8 |
| 20260506171040 | 17 | 331 | 3.2 | 3.2 | 0.00 | 0.00 | 0.00 | 81 | 1006.8 |
| 20260506170538 | 17 | 164 | 1.6 | 3.2 | 0.00 | 0.00 | 0.00 | 83 | 1006.9 |
| 20260506170030 | 17 | 172 | 4.8 | 6.4 | 0.00 | 0.00 | 0.00 | 81 | 1007.1 |
| 20260506165528 | 17 | 177 | 4.8 | 4.8 | 0.00 | 0.00 | 0.00 | 81 | 1007.2 |
| 20260506165024 | 17 | 173 | 1.6 | 3.2 | 0.00 | 0.00 | 0.00 | 81 | 1007.1 |
| 20260506164521 | 17 | 241 | 3.2 | 3.2 | 0.00 | 0.00 | 0.00 | 81 | 1007.1 |
| 20260506164018 | 17 | 218 | 1.6 | 1.6 | 0.00 | 0.00 | 0.00 | 81 | 1007.2 |
| 20260506163514 | 17 | 321 | 3.2 | 3.2 | 0.00 | 0.00 | 0.00 | 81 | 1007.4 |
| 20260506163010 | 17 | 140 | 3.2 | 4.8 | 0.00 | 0.00 | 0.00 | 82 | 1007.7 |
| 20260506162507 | 17 | 138 | 3.2 | 4.8 | 0.00 | 0.00 | 0.00 | 82 | 1007.7 |
| 20260506162004 | 17 | 270 | 0.0 | 0.0 | 0.00 | 0.00 | 0.00 | 82 | 1007.8 |
| 20260506161501 | 17 | 167 | 3.2 | 4.8 | 0.00 | 0.00 | 0.00 | 82 | 1007.9 |
| 20260506160958 | 17 | 52 | 3.2 | 3.2 | 0.00 | 0.00 | 0.00 | 82 | 1008.2 |
| 20260506160456 | 17 | 154 | 3.2 | 4.8 | 0.00 | 0.00 | 0.00 | 83 | 1008.1 |
| 20260506155953 | 17 | 225 | 0.0 | 1.6 | 0.00 | 0.00 | 0.00 | 82 | 1008.4 |
| 20260506155451 | 17 | 152 | 0.0 | 1.6 | 0.00 | 0.00 | 0.00 | 83 | 1008.4 |
| 20260506153623 | 17 | 169 | 3.2 | 3.2 | 0.00 | 0.00 | 0.00 | 83 | 1008.3 |
| 20260506153121 | 17 | 262 | 0.0 | 0.0 | 0.00 | 0.00 | 0.00 | 83 | 1008.6 |
| 20260506152617 | 16 | 56 | 3.2 | 4.8 | 0.00 | 0.00 | 0.00 | 84 | 1008.3 |
| 20260506152115 | 16 | 235 | 1.6 | 3.2 | 0.00 | 0.00 | 0.00 | 84 | 1008.6 |
| 20260506151613 | 16 | 176 | 3.2 | 4.8 | 0.00 | 0.00 | 0.00 | 84 | 1008.6 |
| 20260506151109 | 16 | 233 | 1.6 | 3.2 | 0.00 | 0.00 | 0.00 | 84 | 1008.6 |
| 20260506150606 | 16 | 310 | 1.6 | 1.6 | 0.00 | 0.00 | 0.00 | 84 | 1008.2 |
| 20260506145600 | 16 | 71 | 1.6 | 1.6 | 0.00 | 0.00 | 0.00 | 84 | 1008.4 |
| 20260506145057 | 15 | 335 | 0.0 | 1.6 | 0.00 | 0.00 | 0.00 | 85 | 1008.3 |
| 20260506144554 | 15 | 314 | 0.0 | 1.6 | 0.00 | 0.00 | 0.00 | 84 | 1008.5 |
| 20260506144051 | 15 | 220 | 3.2 | 3.2 | 0.00 | 0.00 | 0.00 | 85 | 1008.1 |
| 20260506143549 | 15 | 231 | 3.2 | 3.2 | 0.00 | 0.00 | 0.00 | 84 | 1008.2 |
| 20260506143047 | 16 | 144 | 3.2 | 3.2 | 0.00 | 0.00 | 0.00 | 83 | 1008.2 |
| 20260506142544 | 16 | 277 | 0.0 | 0.0 | 0.00 | 0.00 | 0.00 | 85 | 1008.2 |
| 20260506142042 | 16 | 193 | 3.2 | 3.2 | 0.00 | 0.00 | 0.00 | 84 | 1008.3 |
| 20260506141540 | 16 | 228 | 1.6 | 3.2 | 0.00 | 0.00 | 0.00 | 84 | 1008.2 |
| 20260506141038 | 16 | 121 | 3.2 | 4.8 | 0.00 | 0.00 | 0.00 | 85 | 1008.2 |
| 20260506140535 | 16 | 85 | 4.8 | 6.4 | 0.00 | 0.00 | 0.00 | 84 | 1008.6 |
| 20260506140032 | 16 | 205 | 1.6 | 1.6 | 0.00 | 0.00 | 0.00 | 84 | 1008.8 |
| 20260506135529 | 16 | 59 | 3.2 | 3.2 | 0.00 | 0.00 | 0.00 | 84 | 1008.8 |
| 20260506135025 | 16 | 171 | 3.2 | 4.8 | 0.00 | 0.00 | 0.00 | 83 | 1008.7 |
| 20260506134522 | 16 | 140 | 1.6 | 1.6 | 0.00 | 0.00 | 0.00 | 84 | 1008.8 |
| 20260506134018 | 16 | 258 | 0.0 | 0.0 | 0.00 | 0.00 | 0.00 | 84 | 1008.5 |
| 20260506133515 | 16 | 267 | 0.0 | 1.6 | 0.00 | 0.00 | 0.00 | 84 | 1008.7 |
| 20260506133012 | 16 | 218 | 1.6 | 1.6 | 0.00 | 0.00 | 0.00 | 84 | 1008.8 |
| 20260506132509 | 16 | 161 | 0.0 | 1.6 | 0.00 | 0.00 | 0.00 | 85 | 1008.6 |
| 20260506132006 | 15 | 223 | 0.0 | 0.0 | 0.00 | 0.00 | 0.00 | 84 | 1008.6 |
| 20260506131503 | 16 | 235 | 1.6 | 1.6 | 0.00 | 0.00 | 0.00 | 84 | 1008.6 |
| 20260506130954 | 16 | 72 | 3.2 | 3.2 | 0.00 | 0.00 | 0.00 | 83 | 1008.6 |
| 20260506130451 | 16 | 255 | 1.6 | 1.6 | 0.00 | 0.00 | 0.00 | 83 | 1008.5 |
| 20260506125948 | 15 | 108 | 1.6 | 3.2 | 0.00 | 0.00 | 0.00 | 85 | 1008.8 |
| 20260506125447 | 15 | 188 | 0.0 | 1.6 | 0.00 | 0.00 | 0.00 | 84 | 1008.5 |
| 20260506124944 | 15 | 199 | 3.2 | 4.8 | 0.00 | 0.00 | 0.00 | 83 | 1008.7 |
| 20260506124442 | 16 | 282 | 3.2 | 3.2 | 0.00 | 0.00 | 0.00 | 84 | 1008.6 |
| 20260506123940 | 16 | 86 | 3.2 | 4.8 | 0.00 | 0.00 | 0.00 | 82 | 1008.7 |
| 20260506123438 | 15 | 235 | 1.6 | 3.2 | 0.00 | 0.00 | 0.00 | 84 | 1008.7 |
| 20260506122935 | 15 | 242 | 1.6 | 1.6 | 0.00 | 0.00 | 0.00 | 85 | 1008.7 |
| 20260506122431 | 15 | 240 | 0.0 | 1.6 | 0.00 | 0.00 | 0.00 | 86 | 1008.7 |
| 20260506121930 | 14 | 174 | 1.6 | 1.6 | 0.00 | 0.00 | 0.00 | 88 | 1008.7 |
| 20260506121426 | 14 | 225 | 1.6 | 3.2 | 0.00 | 0.00 | 0.00 | 86 | 1008.9 |
| 20260506120923 | 13 | 250 | 0.0 | 0.0 | 0.00 | 0.00 | 0.00 | 88 | 1008.9 |
| 20260506120421 | 13 | 294 | 0.0 | 0.0 | 0.00 | 0.00 | 0.00 | 89 | 1008.8 |
| 20260506115918 | 13 | 287 | 0.0 | 0.0 | 0.00 | 0.00 | 0.00 | 89 | 1009.1 |
| 20260506115416 | 13 | 332 | 0.0 | 0.0 | 0.00 | 0.00 | 0.00 | 89 | 1008.9 |
| 20260506114914 | 13 | 301 | 0.0 | 0.0 | 0.00 | 0.00 | 0.00 | 89 | 1009.0 |
| 20260506114411 | 13 | 22 | 1.6 | 1.6 | 0.00 | 0.00 | 0.00 | 89 | 1009.1 |
| 20260506113910 | 12 | 292 | 0.0 | 0.0 | 0.00 | 0.00 | 0.00 | 89 | 1008.9 |
| 20260506113407 | 12 | 251 | 0.0 | 0.0 | 0.00 | 0.00 | 0.00 | 90 | 1009.1 |
| 20260506112903 | 12 | 301 | 0.0 | 0.0 | 0.00 | 0.00 | 0.00 | 90 | 1009.4 |
| 20260506112401 | 12 | 284 | 0.0 | 0.0 | 0.00 | 0.00 | 0.00 | 90 | 1009.5 |
| 20260506111858 | 12 | 339 | 0.0 | 0.0 | 0.00 | 0.00 | 0.00 | 91 | 1009.3 |
| 20260506111356 | 12 | 311 | 1.6 | 1.6 | 0.00 | 0.00 | 0.00 | 90 | 1009.2 |
| 20260506110853 | 12 | 223 | 0.0 | 0.0 | 0.00 | 0.00 | 0.00 | 91 | 1009.7 |
| 20260506110350 | 12 | 286 | 0.0 | 0.0 | 0.00 | 0.00 | 0.00 | 91 | 1009.5 |
| 20260506105847 | 12 | 342 | 1.6 | 1.6 | 0.00 | 0.00 | 0.00 | 91 | 1009.5 |
| 20260506105343 | 11 | 281 | 0.0 | 0.0 | 0.00 | 0.00 | 0.00 | 92 | 1009.5 |
| 20260506104841 | 11 | 287 | 0.0 | 0.0 | 0.00 | 0.00 | 0.00 | 92 | 1009.4 |
| 20260506104339 | 11 | 285 | 0.0 | 0.0 | 0.00 | 0.00 | 0.00 | 92 | 1009.5 |
| 20260506103836 | 11 | 310 | 0.0 | 0.0 | 0.00 | 0.00 | 0.00 | 92 | 1009.3 |
| 20260506103334 | 11 | 292 | 0.0 | 0.0 | 0.00 | 0.00 | 0.00 | 92 | 1009.4 |
| 20260506102831 | 11 | 275 | 0.0 | 0.0 | 0.00 | 0.00 | 0.00 | 92 | 1009.1 |
| 20260506102329 | 11 | 296 | 0.0 | 0.0 | 0.00 | 0.00 | 0.00 | 93 | 1009.0 |
| 20260506101826 | 11 | 313 | 0.0 | 0.0 | 0.00 | 0.00 | 0.00 | 93 | 1008.9 |
| 20260506101321 | 11 | 229 | 0.0 | 0.0 | 0.00 | 0.00 | 0.00 | 92 | 1009.2 |
| 20260506100820 | 11 | 289 | 0.0 | 0.0 | 0.00 | 0.00 | 0.00 | 93 | 1009.3 |
| 20260506100318 | 10 | 294 | 0.0 | 0.0 | 0.00 | 0.00 | 0.00 | 94 | 1009.1 |
| 20260506095816 | 10 | 296 | 0.0 | 0.0 | 0.00 | 0.00 | 0.00 | 94 | 1008.9 |
| 20260506095313 | 10 | 287 | 0.0 | 0.0 | 0.00 | 0.00 | 0.00 | 94 | 1008.8 |
| 20260506094809 | 10 | 280 | 0.0 | 0.0 | 0.00 | 0.00 | 0.00 | 94 | 1009.1 |
| 20260506094308 | 10 | 290 | 0.0 | 0.0 | 0.00 | 0.00 | 0.00 | 94 | 1009.2 |
| 20260506093806 | 10 | 296 | 0.0 | 0.0 | 0.00 | 0.00 | 0.00 | 93 | 1008.9 |
| 20260506093302 | 10 | 316 | 0.0 | 0.0 | 0.00 | 0.00 | 0.00 | 93 | 1008.8 |
| 20260506092801 | 10 | 301 | 0.0 | 0.0 | 0.00 | 0.00 | 0.00 | 93 | 1009.0 |
| 20260506092258 | 11 | 302 | 0.0 | 0.0 | 0.00 | 0.00 | 0.00 | 92 | 1008.9 |
| 20260506091755 | 11 | 311 | 0.0 | 0.0 | 0.00 | 0.00 | 0.00 | 92 | 1009.1 |
| 20260506091253 | 11 | 294 | 0.0 | 0.0 | 0.00 | 0.00 | 0.00 | 92 | 1009.0 |
| 20260506090751 | 11 | 291 | 0.0 | 0.0 | 0.00 | 0.00 | 0.00 | 92 | 1009.0 |
| 20260506090247 | 11 | 298 | 0.0 | 0.0 | 0.00 | 0.00 | 0.00 | 92 | 1008.8 |
| 20260506085744 | 11 | 281 | 0.0 | 0.0 | 0.00 | 0.00 | 0.00 | 91 | 1008.7 |
| 20260506085240 | 11 | 289 | 0.0 | 0.0 | 0.00 | 0.00 | 0.00 | 91 | 1008.8 |
| 20260506084737 | 11 | 291 | 0.0 | 0.0 | 0.00 | 0.00 | 0.00 | 91 | 1008.8 |
| 20260506084233 | 11 | 291 | 0.0 | 0.0 | 0.00 | 0.00 | 0.00 | 90 | 1008.7 |
| 20260506083730 | 11 | 284 | 0.0 | 0.0 | 0.00 | 0.00 | 0.00 | 89 | 1008.5 |
| 20260506083228 | 12 | 278 | 0.0 | 0.0 | 0.00 | 0.00 | 0.00 | 89 | 1008.6 |
| 20260506082725 | 12 | 215 | 0.0 | 0.0 | 0.00 | 0.00 | 0.00 | 89 | 1008.8 |
| 20260506082221 | 12 | 279 | 0.0 | 0.0 | 0.00 | 0.00 | 0.00 | 89 | 1008.5 |
| 20260506081719 | 12 | 261 | 0.0 | 0.0 | 0.00 | 0.00 | 0.00 | 90 | 1008.4 |
| 20260506081216 | 11 | 8 | 1.6 | 3.2 | 0.00 | 0.00 | 0.00 | 90 | 1008.6 |
| 20260506080714 | 12 | 306 | 0.0 | 0.0 | 0.00 | 0.00 | 0.00 | 90 | 1008.7 |
| 20260506080210 | 12 | 275 | 0.0 | 0.0 | 0.00 | 0.00 | 0.00 | 89 | 1008.7 |
| 20260506073154 | 12 | 319 | 0.0 | 0.0 | 0.00 | 0.00 | 0.00 | 88 | 1008.7 |
| 20260506072650 | 12 | 285 | 0.0 | 0.0 | 0.00 | 0.00 | 0.00 | 88 | 1008.5 |
| 20260506072148 | 12 | 321 | 0.0 | 0.0 | 0.00 | 0.00 | 0.00 | 88 | 1008.4 |
| 20260506071646 | 12 | 300 | 0.0 | 0.0 | 0.00 | 0.00 | 0.00 | 87 | 1008.5 |
| 20260506071143 | 12 | 329 | 0.0 | 0.0 | 0.00 | 0.00 | 0.00 | 87 | 1008.4 |
| 20260506070640 | 12 | 31 | 0.0 | 0.0 | 0.00 | 0.00 | 0.00 | 87 | 1008.3 |
| 20260506070137 | 12 | 294 | 0.0 | 0.0 | 0.00 | 0.00 | 0.00 | 87 | 1008.2 |
| 20260506062114 | 11 | 260 | 0.0 | 0.0 | 0.00 | 0.00 | 0.00 | 91 | 1008.0 |
| 20260506061610 | 11 | 290 | 0.0 | 0.0 | 0.00 | 0.00 | 0.00 | 91 | 1007.9 |
| 20260506061108 | 11 | 314 | 0.0 | 0.0 | 0.00 | 0.00 | 0.00 | 91 | 1008.0 |
| 20260506060606 | 11 | 298 | 0.0 | 0.0 | 0.00 | 0.00 | 0.00 | 91 | 1008.0 |
| 20260506051035 | 12 | 357 | 1.6 | 1.6 | 0.00 | 0.00 | 0.00 | 88 | 1007.9 |
| 20260506050533 | 12 | 325 | 0.0 | 0.0 | 0.00 | 0.00 | 0.00 | 88 | 1008.4 |
| 20260506045023 | 12 | 345 | 1.6 | 1.6 | 0.00 | 0.00 | 0.00 | 88 | 1008.1 |
| 20260506044521 | 12 | 5 | 0.0 | 1.6 | 0.00 | 0.00 | 0.00 | 88 | 1008.2 |
| 20260506044018 | 12 | 292 | 0.0 | 0.0 | 0.00 | 0.00 | 0.00 | 87 | 1008.1 |
| 20260506043515 | 12 | 273 | 0.0 | 0.0 | 0.00 | 0.00 | 0.00 | 87 | 1008.0 |
| 20260506043013 | 12 | 316 | 0.0 | 0.0 | 0.00 | 0.00 | 0.00 | 86 | 1008.0 |
| 20260506042512 | 12 | 258 | 0.0 | 0.0 | 0.00 | 0.00 | 0.00 | 87 | 1008.0 |
| 20260506042010 | 12 | 313 | 0.0 | 0.0 | 0.00 | 0.00 | 0.00 | 86 | 1008.1 |
| 20260506041508 | 12 | 301 | 0.0 | 0.0 | 0.00 | 0.00 | 0.00 | 85 | 1008.1 |
| 20260506041005 | 13 | 329 | 0.0 | 0.0 | 0.00 | 0.00 | 0.00 | 86 | 1007.9 |
| 20260506040503 | 13 | 336 | 0.0 | 1.6 | 0.00 | 0.00 | 0.00 | 84 | 1008.1 |
| 20260506035958 | 13 | 211 | 1.6 | 1.6 | 0.00 | 0.00 | 0.00 | 83 | 1008.2 |
| 20260506035455 | 13 | 270 | 0.0 | 0.0 | 0.00 | 0.00 | 0.00 | 83 | 1008.2 |
| 20260506034951 | 13 | 251 | 0.0 | 0.0 | 0.00 | 0.00 | 0.00 | 82 | 1008.2 |
| 20260506034449 | 13 | 321 | 1.6 | 1.6 | 0.00 | 0.00 | 0.00 | 82 | 1008.0 |
| 20260506033946 | 14 | 280 | 0.0 | 0.0 | 0.00 | 0.00 | 0.00 | 83 | 1007.9 |
| 20260506033444 | 14 | 335 | 1.6 | 1.6 | 0.00 | 0.00 | 0.00 | 81 | 1007.9 |
| 20260506032940 | 14 | 248 | 0.0 | 0.0 | 0.00 | 0.00 | 0.00 | 82 | 1008.0 |
| 20260506032437 | 14 | 251 | 0.0 | 0.0 | 0.00 | 0.00 | 0.00 | 82 | 1007.9 |
| 20260506031934 | 13 | 286 | 0.0 | 0.0 | 0.00 | 0.00 | 0.00 | 83 | 1007.8 |
| 20260506031431 | 13 | 282 | 0.0 | 0.0 | 0.00 | 0.00 | 0.00 | 84 | 1007.9 |
| 20260506030929 | 14 | 289 | 0.0 | 0.0 | 0.00 | 0.00 | 0.00 | 84 | 1007.8 |
| 20260506030427 | 14 | 342 | 0.0 | 0.0 | 0.00 | 0.00 | 0.00 | 84 | 1007.9 |
| 20260506025923 | 14 | 291 | 0.0 | 0.0 | 0.00 | 0.00 | 0.00 | 83 | 1007.7 |
| 20260506025420 | 15 | 286 | 0.0 | 0.0 | 0.00 | 0.00 | 0.00 | 82 | 1007.8 |
| 20260506024917 | 15 | 323 | 0.0 | 0.0 | 0.00 | 0.00 | 0.00 | 81 | 1007.7 |
| 20260506024414 | 15 | 271 | 0.0 | 0.0 | 0.00 | 0.00 | 0.00 | 80 | 1007.9 |
| 20260506023910 | 15 | 289 | 0.0 | 0.0 | 0.00 | 0.00 | 0.00 | 78 | 1008.1 |
| 20260506023407 | 16 | 297 | 0.0 | 0.0 | 0.00 | 0.00 | 0.00 | 77 | 1008.0 |
| 20260506022903 | 16 | 256 | 0.0 | 0.0 | 0.00 | 0.00 | 0.00 | 77 | 1008.1 |
| 20260506022401 | 16 | 220 | 0.0 | 0.0 | 0.00 | 0.00 | 0.00 | 77 | 1008.2 |
| 20260506021859 | 16 | 220 | 0.0 | 0.0 | 0.00 | 0.00 | 0.00 | 76 | 1008.0 |
| 20260506021356 | 16 | 259 | 0.0 | 0.0 | 0.00 | 0.00 | 0.00 | 76 | 1008.4 |
| 20260506020852 | 16 | 258 | 0.0 | 0.0 | 0.00 | 0.00 | 0.00 | 77 | 1008.4 |
| 20260506020351 | 16 | 250 | 0.0 | 0.0 | 0.00 | 0.00 | 0.00 | 76 | 1008.0 |
| 20260506015848 | 17 | 243 | 0.0 | 0.0 | 0.00 | 0.00 | 0.00 | 75 | 1007.9 |
| 20260506015345 | 16 | 259 | 0.0 | 0.0 | 0.00 | 0.00 | 0.00 | 74 | 1008.2 |
| 20260506014842 | 16 | 257 | 0.0 | 0.0 | 0.00 | 0.00 | 0.00 | 74 | 1008.3 |
| 20260506014338 | 17 | 123 | 0.0 | 0.0 | 0.00 | 0.00 | 0.00 | 75 | 1008.2 |
| 20260506013835 | 17 | 248 | 0.0 | 0.0 | 0.00 | 0.00 | 0.00 | 74 | 1008.2 |
| 20260506013333 | 17 | 248 | 0.0 | 0.0 | 0.00 | 0.00 | 0.00 | 75 | 1008.2 |
| 20260506012829 | 17 | 248 | 0.0 | 0.0 | 0.00 | 0.00 | 0.00 | 73 | 1008.4 |
| 20260506012326 | 17 | 248 | 0.0 | 0.0 | 0.00 | 0.00 | 0.00 | 74 | 1008.3 |
| 20260506011823 | 17 | 248 | 0.0 | 0.0 | 0.00 | 0.00 | 0.00 | 76 | 1008.2 |
| 20260506011320 | 17 | 248 | 0.0 | 0.0 | 0.00 | 0.00 | 0.00 | 74 | 1008.3 |
| 20260506010817 | 17 | 248 | 0.0 | 0.0 | 0.00 | 0.00 | 0.00 | 74 | 1008.1 |
| 20260506010315 | 17 | 248 | 0.0 | 1.6 | 0.00 | 0.00 | 0.00 | 74 | 1008.1 |
| 20260506005812 | 17 | 216 | 0.0 | 0.0 | 0.00 | 0.00 | 0.00 | 73 | 1007.9 |
| 20260506005309 | 17 | 336 | 0.0 | 0.0 | 0.00 | 0.00 | 0.00 | 73 | 1007.9 |
| 20260506004805 | 17 | 52 | 1.6 | 1.6 | 0.00 | 0.00 | 0.00 | 72 | 1007.8 |
| 20260506004303 | 17 | 268 | 1.6 | 1.6 | 0.00 | 0.00 | 0.00 | 72 | 1007.9 |
| 20260506003759 | 17 | 291 | 0.0 | 0.0 | 0.00 | 0.00 | 0.00 | 74 | 1007.9 |
| 20260506003256 | 18 | 285 | 0.0 | 0.0 | 0.00 | 0.00 | 0.00 | 71 | 1007.8 |
| 20260506002751 | 18 | 273 | 0.0 | 0.0 | 0.00 | 0.00 | 0.00 | 71 | 1007.9 |
| 20260506002247 | 18 | 276 | 0.0 | 0.0 | 0.00 | 0.00 | 0.00 | 71 | 1007.6 |
| 20260506001743 | 18 | 270 | 4.8 | 4.8 | 0.00 | 0.00 | 0.00 | 71 | 1007.5 |
| 20260506001241 | 18 | 292 | 0.0 | 1.6 | 0.00 | 0.00 | 0.00 | 70 | 1007.0 |
| 20260506000738 | 18 | 246 | 3.2 | 3.2 | 0.00 | 0.00 | 0.00 | 69 | 1007.0 |
| 20260506000235 | 18 | 223 | 1.6 | 3.2 | 0.00 | 0.00 | 0.00 | 71 | 1006.7 |
| 20260505235732 | 18 | 172 | 1.6 | 1.6 | 0.00 | 0.00 | 0.00 | 73 | 1006.1 |
| 20260505235230 | 19 | 321 | 0.0 | 0.0 | 0.00 | 0.00 | 0.00 | 73 | 1006.2 |
| 20260505234726 | 19 | 235 | 0.0 | 1.6 | 0.00 | 0.00 | 0.00 | 72 | 1006.4 |
| 20260505234224 | 20 | 218 | 1.6 | 1.6 | 0.00 | 0.00 | 0.00 | 71 | 1005.8 |
| 20260505233720 | 20 | 289 | 0.0 | 0.0 | 0.00 | 0.00 | 0.00 | 67 | 1005.9 |
| 20260505233219 | 20 | 296 | 1.6 | 3.2 | 0.00 | 0.00 | 0.00 | 65 | 1005.9 |
| 20260505232715 | 20 | 321 | 1.6 | 1.6 | 0.00 | 0.00 | 0.00 | 65 | 1006.2 |
| 20260505232213 | 20 | 280 | 4.8 | 4.8 | 0.00 | 0.00 | 0.00 | 65 | 1006.3 |
| 20260505231709 | 20 | 292 | 0.0 | 1.6 | 0.00 | 0.00 | 0.00 | 64 | 1006.1 |
| 20260505231209 | 21 | 271 | 3.2 | 4.8 | 0.00 | 0.00 | 0.00 | 64 | 1006.5 |
| 20260505230706 | 21 | 281 | 14.5 | 16.1 | 0.00 | 0.00 | 0.00 | 63 | 1006.6 |
| 20260505230202 | 21 | 291 | 9.7 | 12.9 | 0.00 | 0.00 | 0.00 | 62 | 1006.5 |
| 20260505225659 | 20 | 288 | 11.3 | 17.7 | 0.00 | 0.00 | 0.00 | 63 | 1006.3 |
| 20260505225156 | 20 | 216 | 4.8 | 9.7 | 0.00 | 0.00 | 0.00 | 63 | 1006.3 |
| 20260505224651 | 20 | 222 | 6.4 | 6.4 | 0.00 | 0.00 | 0.00 | 62 | 1006.5 |
| 20260505224149 | 20 | 229 | 9.7 | 11.3 | 0.00 | 0.00 | 0.00 | 61 | 1004.7 |
| 20260505223646 | 20 | 300 | 4.8 | 4.8 | 0.00 | 0.00 | 0.00 | 61 | 1004.3 |
| 20260505223142 | 20 | 229 | 4.8 | 6.4 | 0.00 | 0.00 | 0.00 | 61 | 1004.2 |
| 20260505222633 | 20 | 236 | 11.3 | 16.1 | 0.00 | 0.00 | 0.00 | 60 | 1004.3 |
| 20260505222129 | 20 | 211 | 4.8 | 9.7 | 0.00 | 0.00 | 0.00 | 60 | 1004.1 |
| 20260505221626 | 20 | 187 | 11.3 | 16.1 | 0.00 | 0.00 | 0.00 | 59 | 1004.1 |
| 20260505221123 | 20 | 187 | 4.8 | 4.8 | 0.00 | 0.00 | 0.00 | 60 | 1004.1 |
| 20260505220621 | 21 | 237 | 4.8 | 6.4 | 0.00 | 0.00 | 0.00 | 59 | 1004.1 |
| 20260505220118 | 21 | 126 | 6.4 | 14.5 | 0.00 | 0.00 | 0.00 | 58 | 1004.3 |
| 20260505215616 | 21 | 210 | 3.2 | 6.4 | 0.00 | 0.00 | 0.00 | 59 | 1004.0 |
| 20260505215114 | 21 | 158 | 4.8 | 6.4 | 0.00 | 0.00 | 0.00 | 59 | 1004.0 |
| 20260505214612 | 21 | 167 | 1.6 | 3.2 | 0.00 | 0.00 | 0.00 | 59 | 1003.8 |
| 20260505214108 | 21 | 223 | 11.3 | 16.1 | 0.00 | 0.00 | 0.00 | 58 | 1004.0 |
| 20260505213606 | 22 | 268 | 1.6 | 1.6 | 0.00 | 0.00 | 0.00 | 56 | 1003.8 |
| 20260505213102 | 22 | 144 | 9.7 | 12.9 | 0.00 | 0.00 | 0.00 | 55 | 1003.7 |
| 20260505212558 | 22 | 204 | 9.7 | 12.9 | 0.00 | 0.00 | 0.00 | 55 | 1003.8 |
| 20260505212056 | 22 | 186 | 11.3 | 16.1 | 0.00 | 0.00 | 0.00 | 55 | 1003.6 |
| 20260505211553 | 22 | 201 | 9.7 | 12.9 | 0.00 | 0.00 | 0.00 | 55 | 1003.5 |
| 20260505211050 | 22 | 190 | 8.0 | 9.7 | 0.00 | 0.00 | 0.00 | 55 | 1003.2 |
| 20260505210546 | 22 | 208 | 6.4 | 9.7 | 0.00 | 0.00 | 0.00 | 54 | 1003.5 |
| 20260505210044 | 22 | 204 | 4.8 | 6.4 | 0.00 | 0.00 | 0.00 | 55 | 1003.5 |
| 20260505205541 | 22 | 241 | 0.0 | 1.6 | 0.00 | 0.00 | 0.00 | 55 | 1003.5 |
| 20260505205038 | 23 | 221 | 6.4 | 9.7 | 0.00 | 0.00 | 0.00 | 55 | 1003.4 |
| 20260505204536 | 23 | 28 | 6.4 | 9.7 | 0.00 | 0.00 | 0.00 | 53 | 1003.5 |
| 20260505204033 | 23 | 244 | 4.8 | 4.8 | 0.00 | 0.00 | 0.00 | 54 | 1003.4 |
| 20260505203529 | 23 | 215 | 9.7 | 12.9 | 0.00 | 0.00 | 0.00 | 55 | 1003.6 |
| 20260505203027 | 23 | 210 | 4.8 | 4.8 | 0.00 | 0.00 | 0.00 | 53 | 1003.7 |
| 20260505202523 | 23 | 198 | 9.7 | 17.7 | 0.00 | 0.00 | 0.00 | 54 | 1003.7 |
| 20260505202018 | 23 | 333 | 8.0 | 12.9 | 0.00 | 0.00 | 0.00 | 54 | 1003.6 |
| 20260505201516 | 23 | 114 | 3.2 | 4.8 | 0.00 | 0.00 | 0.00 | 57 | 1003.5 |
| 20260505201013 | 23 | 220 | 6.4 | 11.3 | 0.00 | 0.00 | 0.00 | 56 | 1003.7 |
| 20260505200511 | 22 | 211 | 11.3 | 16.1 | 0.00 | 0.00 | 0.00 | 55 | 1003.9 |
| 20260505200008 | 23 | 145 | 9.7 | 24.1 | 0.00 | 0.00 | 0.00 | 55 | 1003.8 |
| 20260505195504 | 23 | 204 | 9.7 | 12.9 | 0.00 | 0.00 | 0.00 | 54 | 1003.9 |
| 20260505195001 | 23 | 174 | 11.3 | 14.5 | 0.00 | 0.00 | 0.00 | 54 | 1003.9 |
| 20260505194459 | 23 | 237 | 12.9 | 17.7 | 0.00 | 0.00 | 0.00 | 53 | 1004.1 |
| 20260505193958 | 23 | 238 | 4.8 | 9.7 | 0.00 | 0.00 | 0.00 | 53 | 1004.1 |
| 20260505193456 | 24 | 191 | 14.5 | 24.1 | 0.00 | 0.00 | 0.00 | 51 | 1004.2 |
| 20260505192953 | 24 | 187 | 6.4 | 9.7 | 0.00 | 0.00 | 0.00 | 51 | 1004.0 |
| 20260505192452 | 24 | 222 | 6.4 | 6.4 | 0.00 | 0.00 | 0.00 | 52 | 1004.0 |
| 20260505191949 | 24 | 111 | 8.0 | 11.3 | 0.00 | 0.00 | 0.00 | 51 | 1004.3 |
| 20260505191448 | 24 | 232 | 14.5 | 17.7 | 0.00 | 0.00 | 0.00 | 50 | 1004.3 |
| 20260505190944 | 25 | 147 | 11.3 | 14.5 | 0.00 | 0.00 | 0.00 | 50 | 1004.4 |
| 20260505190439 | 25 | 252 | 12.9 | 17.7 | 0.00 | 0.00 | 0.00 | 50 | 1004.6 |
| 20260505185935 | 25 | 212 | 4.8 | 4.8 | 0.00 | 0.00 | 0.00 | 53 | 1004.6 |
| 20260505185433 | 25 | 271 | 9.7 | 12.9 | 0.00 | 0.00 | 0.00 | 51 | 1004.7 |
| 20260505184929 | 25 | 126 | 6.4 | 9.7 | 0.00 | 0.00 | 0.00 | 51 | 1004.7 |
| 20260505184426 | 25 | 133 | 1.6 | 1.6 | 0.00 | 0.00 | 0.00 | 51 | 1004.7 |
| 20260505183922 | 25 | 176 | 6.4 | 9.7 | 0.00 | 0.00 | 0.00 | 53 | 1004.8 |
| 20260505183419 | 25 | 114 | 1.6 | 3.2 | 0.00 | 0.00 | 0.00 | 52 | 1004.9 |
| 20260505182916 | 24 | 240 | 8.0 | 14.5 | 0.00 | 0.00 | 0.00 | 54 | 1004.8 |
| 20260505182413 | 24 | 158 | 4.8 | 6.4 | 0.00 | 0.00 | 0.00 | 53 | 1004.6 |
| 20260505181909 | 25 | 282 | 4.8 | 6.4 | 0.00 | 0.00 | 0.00 | 54 | 1005.0 |
| 20260505181407 | 25 | 223 | 6.4 | 9.7 | 0.00 | 0.00 | 0.00 | 56 | 1005.0 |
| 20260505180903 | 24 | 222 | 6.4 | 11.3 | 0.00 | 0.00 | 0.00 | 55 | 1005.0 |
| 20260505180400 | 23 | 236 | 1.6 | 1.6 | 0.00 | 0.00 | 0.00 | 57 | 1005.0 |